• In Hungary
  • List of Countries
  • For 7 days
  • Water Temperature
  • Satellite Maps
  • Weather Map
  • News
  • Weather Widgets
  • user-avatar
    Login

    Hourly Weather Bolshaya Rzhaksa

    Today, 24 June, Sunday

    Time Temperature Precipitation Wind Pressure Humidity
    00:00 +21°C° 0 mm 4 mps 746 mmHg 74%
    01:00 +21°C° 0 mm 4 mps 746 mmHg 73%
    02:00 +21°C° 0 mm 3 mps 746 mmHg 72%
    03:00 +21°C° 0 mm 4 mps 746 mmHg 70%
    04:00 +21°C° 0 mm 4 mps 746 mmHg 71%
    05:00 +21°C° 0 mm 4 mps 746 mmHg 72%
    06:00 +21°C° 0 mm 4 mps 746 mmHg 73%
    07:00 +22°C° 0 mm 4 mps 746 mmHg 69%
    08:00 +25°C° 0 mm 5 mps 746 mmHg 64%
    09:00 +27°C° 0 mm 5 mps 746 mmHg 60%
    10:00 +28°C° 0 mm 5 mps 746 mmHg 55%
    11:00 +29°C° 0 mm 6 mps 746 mmHg 51%
    12:00 +30°C° 0 mm 6 mps 746 mmHg 46%
    13:00 +32°C° 0 mm 6 mps 746 mmHg 47%
    14:00 +32°C° 0 mm 6 mps 746 mmHg 48%
    15:00 +32°C° 0 mm 5 mps 746 mmHg 48%
    16:00 +30°C° 0 mm 5 mps 746 mmHg 53%
    17:00 +30°C° 0 mm 4 mps 746 mmHg 58%
    18:00 +29°C° 0 mm 4 mps 746 mmHg 63%
    19:00 +27°C° 0.1 mm 3 mps 747 mmHg 69%
    20:00 +25°C° 0.1 mm 3 mps 747 mmHg 75%
    21:00 +23°C° 0.1 mm 2 mps 747 mmHg 81%
    22:00 +23°C° 0.8 mm 2 mps 747 mmHg 84%
    23:00 +21°C° 0.8 mm 2 mps 747 mmHg 87%

    Tomorrow, 25 June, Monday

    Time Temperature Precipitation Wind Pressure Humidity
    00:00 +21°C° 0.8 mm 1 mps 748 mmHg 91%
    01:00 +20°C° 0.1 mm 2 mps 748 mmHg 93%
    02:00 +19°C° 0.1 mm 2 mps 748 mmHg 94%
    03:00 +19°C° 0.1 mm 2 mps 749 mmHg 96%
    04:00 +19°C° 0 mm 2 mps 749 mmHg 96%
    05:00 +19°C° 0 mm 2 mps 749 mmHg 95%
    06:00 +19°C° 0 mm 2 mps 750 mmHg 94%
    07:00 +19°C° 0 mm 2 mps 750 mmHg 92%
    08:00 +19°C° 0 mm 2 mps 750 mmHg 90%
    09:00 +20°C° 0 mm 2 mps 750 mmHg 88%
    10:00 +20°C° 0 mm 2 mps 751 mmHg 85%
    11:00 +21°C° 0 mm 2 mps 751 mmHg 82%
    12:00 +23°C° 0 mm 2 mps 751 mmHg 79%
    13:00 +24°C° 0 mm 2 mps 751 mmHg 76%
    14:00 +24°C° 0 mm 2 mps 751 mmHg 74%
    15:00 +25°C° 0 mm 2 mps 751 mmHg 71%
    16:00 +25°C° 0 mm 2 mps 751 mmHg 72%
    17:00 +25°C° 0 mm 2 mps 752 mmHg 72%
    18:00 +25°C° 0 mm 2 mps 752 mmHg 72%
    19:00 +23°C° 0 mm 2 mps 752 mmHg 77%
    20:00 +21°C° 0 mm 2 mps 752 mmHg 81%
    21:00 +19°C° 0 mm 2 mps 752 mmHg 85%
    22:00 +19°C° 0 mm 2 mps 752 mmHg 85%
    23:00 +18°C° 0 mm 3 mps 752 mmHg 86%

    Day after tomorrow, 26 June, Tuesday

    Time Temperature Precipitation Wind Pressure Humidity
    00:00 +17°C° 0 mm 3 mps 752 mmHg 86%
    01:00 +17°C° 0 mm 3 mps 752 mmHg 86%
    02:00 +16°C° 0 mm 3 mps 752 mmHg 85%
    03:00 +16°C° 0 mm 3 mps 752 mmHg 85%
    04:00 +16°C° 0 mm 3 mps 752 mmHg 84%
    05:00 +17°C° 0 mm 4 mps 752 mmHg 82%
    06:00 +18°C° 0 mm 4 mps 752 mmHg 81%
    07:00 +19°C° 0 mm 4 mps 752 mmHg 78%
    08:00 +21°C° 0 mm 4 mps 752 mmHg 75%
    09:00 +22°C° 0 mm 4 mps 752 mmHg 72%
    10:00 +25°C° 0 mm 4 mps 752 mmHg 70%
    11:00 +26°C° 0 mm 4 mps 752 mmHg 68%
    12:00 +27°C° 0 mm 4 mps 752 mmHg 67%
    13:00 +28°C° 0.1 mm 3 mps 752 mmHg 66%
    14:00 +28°C° 0.1 mm 3 mps 752 mmHg 65%
    15:00 +29°C° 0.1 mm 3 mps 752 mmHg 64%
    16:00 +28°C° 1 mm 3 mps 752 mmHg 69%
    17:00 +28°C° 1 mm 3 mps 751 mmHg 73%
    18:00 +27°C° 1 mm 3 mps 751 mmHg 77%
    19:00 +26°C° 0.7 mm 3 mps 751 mmHg 81%
    20:00 +24°C° 0.7 mm 3 mps 751 mmHg 85%
    21:00 +22°C° 0.7 mm 3 mps 751 mmHg 90%
    22:00 +21°C° 0.8 mm 3 mps 751 mmHg 91%
    23:00 +21°C° 0.8 mm 3 mps 751 mmHg 92%

    27 June, Wednesday

    Time Temperature Precipitation Wind Pressure Humidity
    00:00 +21°C° 0.8 mm 3 mps 751 mmHg 93%
    01:00 +21°C° 0.7 mm 3 mps 751 mmHg 93%
    02:00 +21°C° 0.7 mm 3 mps 751 mmHg 93%
    03:00 +21°C° 0.7 mm 3 mps 751 mmHg 93%
    04:00 +21°C° 2.3 mm 3 mps 751 mmHg 93%
    05:00 +21°C° 2.3 mm 3 mps 751 mmHg 93%
    06:00 +21°C° 2.3 mm 3 mps 751 mmHg 93%
    07:00 +22°C° 0.5 mm 3 mps 751 mmHg 91%
    08:00 +22°C° 0.5 mm 3 mps 752 mmHg 89%
    09:00 +24°C° 0.5 mm 2 mps 752 mmHg 87%
    10:00 +26°C° 0.1 mm 3 mps 752 mmHg 81%
    11:00 +27°C° 0.1 mm 3 mps 752 mmHg 75%
    12:00 +29°C° 0.1 mm 3 mps 752 mmHg 69%
    13:00 +29°C° 0 mm 3 mps 752 mmHg 66%
    14:00 +30°C° 0 mm 3 mps 751 mmHg 63%
    15:00 +31°C° 0 mm 3 mps 751 mmHg 60%
    16:00 +30°C° 0.8 mm 3 mps 751 mmHg 65%
    17:00 +29°C° 0.8 mm 3 mps 751 mmHg 70%
    18:00 +29°C° 0.8 mm 2 mps 751 mmHg 75%
    19:00 +27°C° 0.2 mm 3 mps 751 mmHg 79%
    20:00 +25°C° 0.2 mm 3 mps 752 mmHg 83%
    21:00 +24°C° 0.2 mm 3 mps 752 mmHg 86%
    22:00 +22°C° 0 mm 3 mps 752 mmHg 87%
    23:00 +22°C° 0 mm 3 mps 752 mmHg 88%

    28 June, Thursday

    Time Temperature Precipitation Wind Pressure Humidity
    00:00 +21°C° 0 mm 3 mps 752 mmHg 89%
    01:00 +21°C° 0 mm 3 mps 752 mmHg 90%
    02:00 +21°C° 0 mm 3 mps 752 mmHg 91%
    03:00 +20°C° 0 mm 3 mps 752 mmHg 93%
    04:00 +21°C° 0 mm 3 mps 752 mmHg 92%
    05:00 +21°C° 0 mm 3 mps 752 mmHg 91%
    06:00 +22°C° 0 mm 3 mps 752 mmHg 90%
    07:00 +24°C° 0 mm 3 mps 752 mmHg 86%
    08:00 +26°C° 0 mm 3 mps 752 mmHg 81%
    09:00 +27°C° 0 mm 4 mps 752 mmHg 77%
    10:00 +28°C° 0.1 mm 4 mps 752 mmHg 72%
    11:00 +29°C° 0.1 mm 3 mps 752 mmHg 68%
    12:00 +30°C° 0.1 mm 3 mps 752 mmHg 63%
    13:00 +31°C° 0.2 mm 3 mps 752 mmHg 62%
    14:00 +31°C° 0.2 mm 3 mps 752 mmHg 60%
    15:00 +31°C° 0.2 mm 3 mps 752 mmHg 59%
    16:00 +31°C° 0 mm 3 mps 751 mmHg 63%
    17:00 +30°C° 0 mm 3 mps 751 mmHg 67%
    18:00 +30°C° 0 mm 3 mps 751 mmHg 71%
    19:00 +28°C° 0.1 mm 3 mps 751 mmHg 76%
    20:00 +26°C° 0.1 mm 3 mps 751 mmHg 81%
    21:00 +25°C° 0.1 mm 4 mps 751 mmHg 85%
    22:00 +23°C° 0 mm 4 mps 751 mmHg 86%
    23:00 +22°C° 0 mm 4 mps 751 mmHg 88%

    29 June, Friday

    Time Temperature Precipitation Wind Pressure Humidity
    00:00 +22°C° 0 mm 3 mps 751 mmHg 89%
    01:00 +21°C° 0.1 mm 3 mps 751 mmHg 90%
    02:00 +21°C° 0.1 mm 3 mps 751 mmHg 91%
    03:00 +20°C° 0.1 mm 3 mps 751 mmHg 93%
    04:00 +21°C° 0.1 mm 3 mps 751 mmHg 91%
    05:00 +21°C° 0.1 mm 3 mps 751 mmHg 89%
    06:00 +22°C° 0.1 mm 4 mps 751 mmHg 87%
    07:00 +23°C° 0 mm 4 mps 751 mmHg 83%
    08:00 +25°C° 0 mm 4 mps 751 mmHg 78%
    09:00 +27°C° 0 mm 5 mps 751 mmHg 73%
    10:00 +28°C° 0 mm 5 mps 751 mmHg 70%
    11:00 +29°C° 0 mm 5 mps 751 mmHg 66%
    12:00 +30°C° 0 mm 5 mps 751 mmHg 63%
    13:00 +30°C° 0 mm 5 mps 751 mmHg 62%
    14:00 +30°C° 0 mm 5 mps 751 mmHg 62%
    15:00 +32°C° 0 mm 4 mps 750 mmHg 61%
    16:00 +30°C° 0.1 mm 4 mps 750 mmHg 64%
    17:00 +30°C° 0.1 mm 4 mps 750 mmHg 68%
    18:00 +29°C° 0.1 mm 4 mps 750 mmHg 72%
    19:00 +28°C° 0 mm 4 mps 750 mmHg 74%
    20:00 +26°C° 0 mm 4 mps 750 mmHg 76%
    21:00 +25°C° 0 mm 4 mps 749 mmHg 78%
    22:00 +23°C° 0.1 mm 4 mps 750 mmHg 77%
    23:00 +22°C° 0.1 mm 4 mps 750 mmHg 76%
    Show more